Location: Hamayl? Da??
(36.7028°N, 30.1716°E)
Time: 23:59:24
(UTC+00:00)

Cosmos 2082 Rocket - Pass Details

Date: 04 August 2024
Orbit: 833 x 852 km, 71.0° (Epoch: 18 September)

Event Time Altitude Azimuth Distance (km) Brightness Sun altitude
Rises 18:13:44 0° 325° (NW) 3,385 6.7 -13.5°
Reaches altitude 10° 18:16:29 10° 314° (NW) 2,448 6.0 -13.9°
Maximum altitude 18:21:09 28° 258° (WSW) 1,521 4.0 -14.7°
Drops below altitude 10° 18:25:51 10° 200° (SSW) 2,442 4.4 -15.5°
Sets 18:28:35 0° 189° (S) 3,375 5.1 -15.9°
